COSMOS 1275 DEB, 12775

Orbit data source: Space-Track

COSMOS 1275 DEB, 12775 is space debris in LEO originally from a launch on Thu, 04 Jun 1981 UTC launched from the Plesetsk Missile And Space Complex (PKMTR). Debris objects in space refer to the collection of defunct objects orbiting the Earth. Examples of debris include non-operational satellites, rocket bodies, and fragments generated from explosions, collisions, or faulty payload assembly.

Loading next visibility...
Identifier
12775, 1981-053DU
Orbit
LEO
Country
Flag of CISCIS
Related business
Manufacturer
Unknown
Mission
Spacecraft
Bus & Motor
Unknown
Mass
Unknown
Launch date (UTC)
1981-06-04 (45 years ago)
Launch vehicle
Unknown
Launch site
Plesetsk Missile And Space Complex (PKMTR)
Object type
Payload
Rocket body
Debris
Shape & HBR
Unknown shape, 0.1 m
Radar Cross Section
Small (<0.1 m²)

Expand to show TLE details & history
Last TLE update: 1 day ago

TLE from 1 day ago
0 COSMOS 1275 DEB
1 12775U 81053DU  26117.99315317  .00001042  00000-0  12176-2 0  9990
2 12775  83.3291 295.2397 0150308 170.8726 320.6142 13.62911117205260
Epoch: 2026-04-27T23:50Z
TLE epoch observation values (Epoch: 2026-04-27T23:50:08.433Z)
Latitude
49.26514°
Longitude
-106.03463°
Altitude
947.575 km
Speed
7.425 km/s
True Right ascension
07h 09m 54s
True Declination
49° 05' 58"
Sunlit
Object was in daylight at epoch
Visualization orbit readout
Latitude
Unknown
Longitude
Unknown
Altitude
Unknown
Speed
Unknown
Apparent Right ascension
Unknown
Apparent Declination
Unknown
Sunlit
N/A
Visualization observer readout
Local Sidereal Time
10:25:15
Azimuth
Unknown
Elevation
Unknown
Doppler factor
Unknown
Orbital elements
Apogee altitude
1,133.516 km
Perigee altitude
911.047 km
Semi-major axis
7,400.419 km
Eccentricity
0.01503
Inclination
83.3291°
RAAN
295.2397°
Arg. of periapsis
170.8726°
True anomaly
319.50524°
Mean anomaly
320.6142°
Eccentric anomaly
320.06134°
Mean motion
3.40925 °/min
Orbital period
105.6 mins
BSTAR
0.0012176
Loading maneuver chart data...
Computing Atmospheric mass density...
Loading historical data...
Loading historical data...
Loading historical data...
Loading historical data...
Loading historical data...
Loading historical data...
Loading historical data...

Documentation

Showing up to 5 results
|